GFSGBSN_700_rhum_057.txt.gz
RH
24 23 22 21 21 20 16 11 7 4 3 3 3 4 6 8 13 15 20 23 25 26 26 25 23 22 21 22 21 18 12 15 15 12 15 16 30 30 27 25 27 27 24 27 32 31 32
6 7 9 12 13 13 15 16 14 10 6 3 2 2 2 3 5 7 11 16 17 19 21 21 20 20 21 23 25 20 12 12 13 11 15 20 24 29 33 29 28 30 28 36 38 33 40
3 3 3 4 6 7 7 6 6 8 7 5 4 2 2 1 2 2 3 6 8 11 15 15 16 17 20 23 25 22 13 13 14 13 18 21 38 39 35 32 30 31 32 42 39 39 42
4 4 3 3 3 3 3 5 7 5 3 4 4 3 2 1 1 1 1 2 2 5 8 8 9 9 15 19 24 23 13 14 15 13 14 33 23 36 40 33 32 29 29 33 53 54 42
2 2 3 3 3 3 3 2 3 3 6 4 3 2 2 1 1 1 1 1 1 1 3 3 4 4 8 14 17 24 14 16 17 13 15 20 27 39 36 30 25 25 26 36 41 42 43
2 2 2 2 2 3 3 3 3 2 3 4 5 2 2 1 1 1 1 1 1 1 1 1 2 4 9 15 22 24 16 14 18 15 30 29 39 39 32 24 21 19 27 24 32 43 36
9 6 5 3 2 2 2 2 3 3 2 2 3 5 3 2 1 1 1 1 1 6 1 2 35 9 19 24 21 20 14 18 40 49 44 42 37 31 24 25 26 26 25 23 42 45 37
14 14 14 15 12 8 5 3 2 2 3 2 2 3 5 3 1 1 1 1 1 1 3 5 13 5 9 17 22 27 17 28 38 43 41 39 38 30 32 36 33 27 26 23 24 30 32
17 18 17 16 16 18 18 13 6 4 3 2 2 2 3 4 3 1 1 1 2 2 1 2 7 10 18 19 23 39 30 43 43 42 36 36 31 35 40 37 36 32 29 25 26 34 33
42 39 37 33 28 20 19 21 22 14 9 5 2 2 3 3 4 2 1 2 2 2 15 23 20 22 14 23 27 27 35 40 39 38 36 35 32 39 37 38 36 31 29 29 33 29 25
55 52 51 49 48 41 32 22 23 26 24 14 7 2 3 4 4 5 31 2 2 2 25 25 42 39 26 30 28 26 40 39 36 37 36 32 32 40 39 36 36 31 40 35 31 29 27
64 62 57 54 55 54 51 39 29 25 29 32 24 8 3 6 4 5 18 2 3 36 27 26 50 33 39 34 31 32 36 38 35 36 35 32 34 35 34 38 41 35 40 36 37 32 30
66 66 67 65 58 59 59 60 48 34 26 30 36 32 11 4 7 6 6 15 58 32 20 20 44 57 56 54 42 38 40 37 34 35 35 34 36 38 40 39 42 41 35 37 45 34 33
74 69 67 67 68 65 61 62 67 58 38 27 38 39 44 6 6 7 84 81 46 23 22 35 34 56 51 45 45 42 41 36 36 34 33 33 28 36 38 34 34 40 34 37 51 46 33
80 79 75 71 68 66 66 63 68 74 71 40 38 50 32 74 20 25 99 100 48 24 17 22 36 51 48 41 42 40 38 34 35 32 30 27 28 28 31 34 30 31 38 33 38 44 40
77 76 76 76 77 69 67 68 65 81 94 96 65 67 37 42 100 50 100 97 59 32 21 28 24 39 40 42 36 37 38 32 33 32 30 27 28 29 32 35 36 37 43 38 37 51 48
79 80 78 91 96 87 70 70 81 84 100 99 97 100 53 83 98 99 100 69 77 40 26 22 30 27 36 43 34 35 36 33 32 33 32 30 30 32 40 41 35 41 42 39 36 34 47
70 76 80 98 100 100 100 98 97 100 100 97 98 99 97 73 98 98 89 11 28 65 41 34 44 45 22 37 42 35 35 34 36 36 37 32 32 36 41 32 32 42 38 37 38 39 40
76 73 78 89 100 99 100 100 99 99 98 96 97 99 97 82 92 97 70 51 20 68 51 43 55 53 50 49 47 39 36 38 38 45 36 35 32 34 32 37 40 36 41 39 39 39 53
50 41 41 56 83 100 98 97 98 97 97 98 98 100 98 97 77 94 82 58 50 64 67 52 70 52 49 53 56 48 40 38 43 39 38 38 33 35 33 29 32 34 35 34 36 40 39
33 44 51 54 51 58 98 98 97 97 97 98 98 96 76 87 81 81 82 60 48 59 63 52 60 58 52 49 50 62 54 49 42 41 41 44 36 33 31 29 27 25 30 31 33 32 33
73 77 81 86 92 90 70 96 97 97 97 97 97 98 99 82 53 99 87 65 47 54 46 61 70 78 50 44 48 57 66 48 51 39 38 45 43 36 31 31 28 26 23 23 24 25 27
88 96 98 100 98 97 97 100 95 93 97 97 96 92 100 84 92 100 88 69 55 51 47 42 57 60 69 52 79 81 62 48 74 74 56 48 47 38 39 34 30 31 29 27 25 26 27
78 70 91 98 96 95 97 96 92 98 97 97 88 84 98 93 94 80 87 75 60 48 48 47 47 61 81 67 79 68 64 66 68 64 75 69 56 43 46 44 62 38 34 32 31 30 28
61 64 71 89 97 96 95 95 96 88 93 97 85 96 98 98 95 94 86 77 64 58 58 49 52 52 66 90 85 73 56 63 56 81 76 75 74 61 57 51 40 33 37 36 32 30 29
77 90 98 87 78 96 90 91 97 88 94 96 97 95 100 92 89 83 88 82 72 67 70 82 55 63 74 98 81 50 28 32 32 73 83 73 79 78 71 56 57 37 38 36 34 36 33
82 92 87 94 84 89 89 95 95 98 95 97 96 96 99 91 91 97 96 88 74 64 78 73 60 93 72 57 86 55 34 26 28 39 77 94 88 95 78 60 44 37 37 33 43 29 33
93 89 72 80 74 72 78 91 91 96 91 97 94 95 91 90 90 93 99 86 89 66 72 79 64 90 74 96 75 58 46 41 42 45 54 82 83 87 79 67 67 43 43 41 31 37 42
69 71 75 81 83 89 96 96 97 87 92 98 96 90 94 97 94 88 84 87 91 76 59 65 86 84 74 71 64 59 57 63 56 48 41 61 66 72 60 58 54 53 41 41 41 42 44

GFSGBSN_700_rhum_063.txt.gz
RH
53 33 20 28 33 11 17 20 21 20 19 18 18 16 13 10 7 7 8 10 11 15 18 21 22 23 24 24 22 22 22 22 20 14 12 13 14 13 23 29 28 26 26 23 26 24 24
40 24 41 40 20 57 33 23 45 35 15 18 21 21 22 21 17 11 8 7 6 9 11 13 17 19 22 23 20 21 22 24 23 15 12 13 11 17 26 25 26 27 27 26 25 26 25
7 20 9 24 56 38 9 20 28 5 17 69 44 16 15 16 19 19 16 12 7 6 6 6 8 11 21 25 18 20 21 24 24 17 11 12 12 24 24 26 31 35 33 31 27 26 28
24 2 2 3 4 35 51 32 7 5 4 3 3 6 12 10 10 10 14 17 12 9 6 5 4 4 21 20 15 16 18 20 24 20 12 14 27 27 24 25 27 34 30 29 26 26 32
2 2 2 2 2 2 2 10 20 16 4 4 3 2 2 2 5 9 8 7 9 12 9 5 6 4 18 18 17 16 13 17 24 17 13 20 33 33 25 24 28 24 34 27 27 30 34
6 5 5 5 5 5 4 3 2 2 2 2 3 3 3 2 2 3 6 7 3 5 5 9 10 12 17 19 18 16 16 14 23 22 19 19 33 30 26 28 33 26 32 27 28 31 34
8 10 12 13 12 12 12 10 8 6 4 2 2 2 3 3 2 2 3 5 5 3 5 10 14 13 16 16 21 23 20 18 27 39 44 28 31 24 14 13 16 29 30 29 23 30 37
10 13 15 16 16 15 14 13 13 13 13 11 7 4 2 2 3 3 3 3 4 22 11 14 13 15 20 17 22 16 25 23 31 32 51 46 36 17 17 28 32 34 32 28 21 37 39
11 12 16 16 16 16 15 16 15 16 16 16 15 14 8 4 2 3 3 4 4 4 6 4 6 12 19 11 11 11 25 20 24 32 42 44 14 27 28 31 32 32 32 27 26 29 30
16 17 17 16 15 20 25 32 36 34 32 27 22 18 19 13 6 4 3 4 4 4 7 4 3 5 8 18 9 8 19 29 31 31 31 48 36 35 39 38 33 33 31 32 33 30 31
20 19 16 15 22 43 56 56 54 51 54 51 42 26 20 22 18 12 7 4 6 4 43 5 19 23 20 19 22 16 17 39 33 32 47 39 41 40 36 35 35 32 31 34 34 35 30
21 17 14 21 42 65 70 69 64 60 58 60 62 50 25 22 22 18 66 54 31 32 87 6 26 24 22 25 24 25 22 31 38 39 42 41 35 34 35 33 33 32 32 34 34 36 42
19 15 20 50 66 72 72 71 70 72 68 61 66 67 47 24 27 38 98 99 56 64 10 10 29 32 24 27 28 30 36 41 44 46 46 41 39 36 34 31 30 34 33 43 55 58 60
17 25 48 67 71 74 76 77 74 72 74 75 69 75 66 33 31 38 97 97 93 20 18 13 31 46 31 27 45 36 38 41 41 44 45 46 43 37 33 30 31 32 36 42 57 80 65
41 77 76 79 82 85 85 82 82 81 83 87 92 86 86 52 28 55 100 98 70 43 34 15 22 27 44 38 48 52 38 43 40 38 43 42 42 37 33 32 31 36 36 34 37 53 61
88 93 86 81 82 83 82 82 85 91 96 100 100 100 97 83 32 70 99 59 47 42 33 30 26 25 28 44 47 50 50 35 44 36 37 39 38 36 35 30 35 35 35 38 41 70 77
98 98 96 92 91 89 86 84 88 96 100 100 98 99 84 100 51 89 80 32 19 36 55 37 32 33 34 38 40 60 48 41 36 37 36 38 37 35 33 33 31 35 34 31 33 42 66
94 98 97 97 96 93 87 83 87 99 100 97 98 97 94 97 95 80 47 34 34 41 58 41 29 44 46 41 43 42 47 59 40 38 36 36 36 36 35 34 31 34 33 30 33 47 46
92 96 96 96 95 87 82 84 86 100 98 97 97 100 98 93 86 70 53 45 48 58 56 49 33 35 40 45 51 44 58 48 55 44 37 36 35 39 38 35 34 31 31 31 32 32 45
95 93 90 89 86 80 80 98 100 100 98 98 98 98 96 98 74 59 57 73 57 66 57 65 29 28 37 47 42 50 55 46 52 54 43 36 33 34 44 42 38 34 32 34 35 42 46
93 90 88 88 84 82 80 88 97 97 98 97 97 96 94 84 91 85 89 96 76 70 64 49 39 19 41 55 54 49 52 61 63 68 45 44 36 34 37 37 39 40 41 35 34 35 46
92 88 86 88 89 87 83 95 97 98 98 97 96 96 97 74 98 98 99 80 70 76 77 81 58 23 46 54 53 55 65 72 84 60 54 43 43 39 39 39 37 42 40 37 34 35 32
91 89 87 95 100 97 88 68 100 97 97 97 93 85 100 91 100 100 68 45 58 85 79 76 58 33 46 50 55 61 61 78 81 84 60 71 47 43 47 43 41 43 38 36 39 37 33
76 80 81 85 92 73 54 43 49 71 92 98 94 94 99 95 95 72 64 60 76 90 84 74 73 65 14 51 65 78 83 92 92 74 95 93 60 47 48 42 60 43 39 36 35 34 31
67 60 58 60 74 96 90 68 58 46 48 98 97 100 98 98 85 72 73 68 66 64 73 87 67 68 44 42 58 76 80 79 77 69 87 97 72 58 54 53 47 44 41 36 35 34 32
79 81 89 98 99 97 100 98 98 89 78 69 98 98 98 97 93 65 75 74 71 67 68 70 48 62 56 49 49 63 91 79 87 74 82 95 83 54 76 73 68 53 42 39 40 37 32
72 80 96 96 96 96 94 93 97 97 94 79 92 96 97 96 92 91 84 70 74 76 63 58 51 56 56 54 48 63 80 76 89 88 92 94 86 83 90 99 66 54 39 39 46 44 35
74 85 97 94 90 93 97 97 91 96 97 97 85 88 97 97 73 96 81 76 88 88 92 64 70 65 54 60 61 67 70 79 62 65 49 46 45 55 72 99 94 53 47 45 54 46 39
88 98 91 85 79 96 92 87 96 94 98 98 94 78 92 96 95 85 81 70 81 92 81 91 76 51 60 67 69 72 75 66 61 54 42 45 35 35 42 56 56 55 60 55 52 56 56

GFSGBSN_700_rhum_066.txt.gz
RH
59 44 60 75 51 28 18 21 14 19 20 20 19 18 18 18 18 16 14 13 12 13 17 20 21 23 25 25 23 22 23 22 22 21 17 16 16 14 12 26 30 29 27 28 31 27 26
37 58 46 60 76 53 52 32 50 26 10 27 36 28 18 22 25 27 26 24 16 11 12 12 15 17 24 29 22 21 21 21 22 23 21 14 15 15 16 24 28 24 26 29 28 26 26
6 52 54 37 34 31 47 52 62 65 51 69 30 22 53 50 36 20 24 26 24 23 19 12 11 12 24 24 20 24 21 21 23 25 23 14 17 16 23 22 21 23 29 26 20 23 25
2 3 25 32 36 23 4 20 55 50 44 20 17 27 21 20 44 67 40 15 13 15 22 17 18 12 26 20 14 20 20 23 22 24 24 14 17 18 25 26 21 24 31 30 25 27 27
3 3 4 4 4 3 3 2 3 20 45 35 54 44 23 4 2 3 10 11 10 7 9 9 16 17 30 23 18 17 20 24 17 20 24 15 18 23 25 28 24 20 19 14 27 26 29
2 4 5 6 6 7 7 9 7 4 3 2 5 8 14 10 11 3 2 2 4 12 7 6 7 15 28 27 20 15 17 14 14 22 24 15 23 31 28 32 30 13 20 27 30 30 34
2 3 5 9 11 12 12 14 13 12 10 7 6 4 3 2 2 3 3 2 3 3 7 6 8 14 23 23 20 21 19 18 12 20 24 22 20 23 16 15 14 19 22 31 34 30 26
2 2 5 8 10 13 15 16 15 14 13 13 12 11 10 7 3 2 3 3 3 8 7 6 4 6 14 13 20 21 25 22 18 16 32 44 27 18 14 15 15 20 33 33 34 29 38
2 3 4 6 11 15 16 16 16 16 16 15 14 14 15 14 12 6 3 3 3 4 5 3 8 6 4 7 16 21 27 21 24 25 30 39 30 25 19 15 20 30 35 34 33 28 31
3 5 8 9 12 15 17 16 15 18 24 28 26 26 25 20 15 14 8 3 3 4 5 3 2 3 3 3 4 18 26 25 27 29 26 50 29 34 36 26 29 38 33 34 32 35 35
4 8 11 14 16 19 17 16 20 41 54 58 54 52 49 36 21 18 15 7 4 6 16 3 4 11 19 6 7 10 16 32 25 22 32 44 29 31 35 33 36 38 37 34 32 35 34
4 10 18 21 20 19 16 19 43 70 74 70 64 62 64 54 34 28 20 17 30 13 65 3 14 18 19 22 16 13 17 17 27 33 31 35 29 39 34 31 36 36 37 32 33 36 45
4 6 14 21 21 17 18 32 68 81 80 77 75 71 70 62 35 27 45 99 76 59 7 6 23 27 21 23 28 27 20 18 46 46 39 36 42 37 39 37 35 36 35 40 51 51 58
13 14 18 22 20 19 41 60 77 86 91 93 93 78 85 65 38 30 93 99 95 27 12 16 35 43 36 29 26 30 39 17 44 38 43 42 44 38 37 41 36 35 31 40 56 71 55
28 28 27 24 24 51 71 78 83 91 100 100 100 100 100 70 38 32 94 98 89 57 41 13 24 30 41 47 43 37 33 38 30 44 44 45 48 33 34 38 36 34 34 32 35 60 66
39 46 42 43 60 87 84 85 89 92 98 99 96 96 92 95 46 42 94 80 80 70 40 46 40 27 25 47 51 56 52 46 37 41 45 43 46 38 35 36 35 34 31 39 43 63 70
40 40 37 44 85 100 94 89 92 96 98 98 98 98 75 100 75 49 67 48 56 69 68 45 37 45 39 40 48 47 62 55 47 36 40 43 42 39 37 36 38 33 34 36 36 45 73
33 34 37 58 85 99 98 95 97 97 97 97 98 95 95 96 92 52 44 39 61 70 63 62 41 36 62 44 43 47 46 44 58 59 51 44 42 44 36 38 36 36 32 33 38 49 48
29 35 50 76 88 97 97 98 96 96 97 98 97 100 99 95 87 68 61 62 78 84 60 73 38 23 32 44 48 49 50 41 54 67 65 51 45 46 41 37 36 38 35 34 34 33 36
39 57 72 89 93 96 97 96 97 97 97 98 97 98 98 95 72 80 83 84 97 89 77 64 46 38 41 54 43 42 42 42 36 49 68 72 67 46 46 39 36 35 35 36 34 36 34
90 96 93 96 97 96 96 96 97 97 97 97 97 91 89 99 98 92 95 99 100 100 100 95 61 44 42 38 48 33 30 64 54 41 53 84 86 59 42 38 36 36 36 37 36 33 34
97 97 96 96 96 96 96 96 96 97 97 97 96 100 99 92 92 95 82 74 89 100 100 97 74 54 52 50 50 43 39 50 67 58 83 92 92 62 51 40 37 36 44 40 37 34 35
96 96 96 96 96 96 96 96 96 97 96 98 98 99 100 96 99 95 49 71 100 94 90 88 78 85 76 52 58 41 56 60 77 74 64 81 99 90 79 58 44 44 39 42 42 44 41
96 93 95 96 95 95 95 99 100 97 96 95 98 100 98 96 90 64 92 92 76 82 86 66 69 88 52 67 77 51 68 96 79 82 80 76 94 98 98 76 69 52 46 46 42 41 40
79 74 72 74 76 78 81 86 93 100 97 96 98 98 95 100 93 93 82 85 76 66 71 67 63 75 73 84 78 59 55 63 65 58 61 60 78 94 99 68 60 58 51 44 42 39 36
56 53 52 53 56 60 64 64 90 90 96 97 98 98 97 98 83 76 86 79 73 62 62 54 56 59 72 82 84 59 56 60 69 63 80 100 90 86 86 98 70 55 49 42 44 42 36
89 85 81 82 86 75 86 73 62 73 94 97 96 96 97 97 76 97 84 68 72 72 65 62 55 56 64 74 80 73 62 53 68 77 80 76 82 97 94 96 72 58 50 46 46 47 42
90 72 69 69 76 93 100 100 96 91 88 92 88 95 96 96 83 100 93 78 76 76 64 54 65 60 66 76 74 75 66 63 66 74 70 62 77 79 87 96 89 57 53 56 54 51 45
94 94 95 98 99 93 98 97 97 96 97 98 92 64 58 97 90 97 100 81 76 67 56 55 64 58 57 68 70 67 63 61 57 71 64 66 53 48 51 45 39 31 52 64 71 67 52

GFSGBSN_700_rhum_069.txt.gz
RH
28 35 38 53 52 42 54 74 69 35 23 21 21 18 16 16 16 16 16 16 13 13 16 18 19 22 23 29 30 25 24 24 23 23 22 20 15 16 15 13 21 29 31 30 27 30 30
9 11 10 25 53 51 53 65 66 69 59 39 19 10 15 19 20 20 22 23 24 24 24 22 20 18 21 28 23 26 22 22 23 22 22 23 18 18 18 13 19 30 29 27 26 28 30
2 2 4 5 29 49 45 53 39 46 78 79 72 33 33 31 38 34 21 22 24 24 27 31 31 29 27 27 21 25 24 23 21 21 22 25 20 18 17 14 18 27 24 16 22 24 24
2 2 2 2 2 28 48 34 28 29 38 50 68 73 52 57 39 23 54 65 57 17 14 21 24 26 37 33 24 23 19 21 21 21 25 27 19 18 18 18 19 20 18 20 23 24 29
2 2 2 2 3 3 5 10 4 4 4 10 43 55 49 65 65 36 13 41 29 30 14 10 11 13 34 32 33 30 24 21 14 17 20 27 20 21 18 22 25 20 17 17 15 27 30
3 2 2 2 2 3 5 6 8 8 6 5 4 4 19 18 54 66 58 34 14 12 11 9 14 16 23 27 22 17 19 18 14 15 18 22 23 22 20 27 25 17 18 19 30 31 31
3 3 2 2 2 3 4 6 10 11 12 11 9 7 6 6 5 11 36 62 48 10 3 3 5 21 13 18 22 26 21 18 16 11 15 25 26 22 19 17 17 19 23 23 22 34 33
4 3 3 2 2 2 3 5 9 11 14 14 13 12 12 11 12 8 4 3 3 7 8 5 4 4 18 10 21 26 28 23 20 13 15 36 28 23 21 22 22 26 29 17 22 32 35
4 4 4 3 3 3 3 4 8 13 15 15 15 15 15 14 14 14 11 7 3 3 6 5 6 9 16 8 6 10 33 27 24 19 16 27 25 25 25 22 19 22 24 16 32 34 35
5 5 4 4 4 4 7 9 13 14 14 15 17 22 23 21 21 18 15 14 8 7 13 2 2 3 3 3 5 10 14 31 32 28 19 38 25 31 35 33 27 22 15 28 37 40 36
6 6 5 4 4 6 8 15 18 18 15 15 24 45 48 43 39 27 22 20 16 16 19 2 3 5 13 6 8 7 4 24 37 28 32 35 24 28 39 23 34 21 24 37 38 40 39
8 6 5 4 4 5 8 15 20 18 16 24 44 66 66 54 48 37 24 22 75 22 57 2 9 13 7 24 16 15 8 8 22 32 39 33 28 35 30 30 31 31 38 38 40 40 47
7 5 4 4 4 6 8 19 22 18 21 52 71 76 74 58 54 44 27 54 88 96 8 7 33 22 22 27 24 16 22 7 17 34 48 44 31 38 38 38 39 42 43 48 54 51 50
6 6 6 8 8 8 9 17 23 23 41 75 90 95 78 69 76 44 29 86 100 47 21 31 37 43 39 35 32 26 35 22 14 34 40 44 40 28 34 37 36 39 41 46 57 67 51
11 17 21 22 24 24 22 20 23 35 69 98 100 100 82 80 81 50 41 100 89 78 51 32 25 30 43 51 44 33 36 37 16 28 39 40 39 25 25 32 39 37 43 38 38 54 66
19 30 34 35 31 39 37 33 30 78 97 100 98 96 75 94 96 57 44 95 99 81 61 43 33 30 32 47 52 54 46 56 41 19 30 39 48 40 37 39 36 40 36 40 45 65 72
22 37 37 35 38 43 41 43 83 100 100 98 98 98 81 98 98 77 52 80 95 84 70 48 43 40 40 37 49 50 59 60 64 62 36 33 42 42 36 40 42 39 40 40 36 38 67
23 38 42 37 35 35 37 46 93 100 100 98 97 98 100 97 98 83 61 57 73 71 79 66 35 56 41 38 40 43 47 53 53 64 70 49 48 47 43 37 38 38 38 38 38 50 48
43 45 45 40 35 32 35 50 85 98 98 98 97 99 98 96 94 83 74 62 62 63 68 68 66 45 53 53 45 44 43 52 55 63 82 80 62 55 50 46 44 43 42 40 36 36 39
46 46 40 31 30 30 33 47 78 97 98 97 97 98 98 97 80 79 84 79 74 65 70 65 61 51 54 55 62 44 36 49 42 65 68 78 85 88 69 50 43 40 37 40 38 38 41
50 62 66 67 64 54 54 64 83 97 97 97 97 95 90 97 94 85 92 85 76 86 82 71 66 57 60 67 61 52 42 33 25 36 56 86 81 84 79 73 58 49 38 37 38 38 38
36 43 61 83 91 93 93 84 95 97 97 97 95 96 100 96 100 94 81 72 100 94 93 86 83 67 67 61 54 50 54 69 48 40 61 66 74 87 90 70 59 54 43 38 37 37 40
95 96 96 96 97 98 99 97 98 97 97 96 95 96 100 96 98 100 70 96 99 100 95 83 81 77 77 57 57 57 91 44 37 69 78 78 71 78 98 77 78 62 48 43 39 39 42
97 96 96 96 96 96 96 96 96 97 96 95 91 88 100 97 93 93 100 98 88 94 93 84 88 86 58 87 84 80 84 66 56 91 97 94 76 77 73 73 96 68 59 49 43 39 37
98 97 97 97 96 96 96 96 96 96 97 96 96 96 100 100 99 98 100 100 96 81 100 87 75 61 72 94 88 85 74 71 89 93 85 75 85 82 77 72 51 46 64 56 52 45 41
98 98 96 96 96 96 96 96 96 96 97 97 94 96 100 99 92 100 98 97 91 91 86 74 58 71 85 97 97 94 72 65 69 86 70 74 82 98 100 94 86 26 33 49 64 52 42
88 98 97 95 80 79 87 99 97 96 96 97 94 96 98 98 100 98 94 93 96 88 79 67 59 61 63 87 98 98 91 67 58 86 95 100 100 89 100 95 77 50 33 44 90 67 50
94 92 95 95 80 69 64 70 86 98 100 97 94 97 96 98 99 97 96 95 97 96 80 65 74 69 72 70 88 97 82 70 61 56 62 69 71 97 99 99 82 65 70 60 90 66 52
96 96 97 97 98 99 94 89 79 81 100 98 97 93 98 99 95 96 98 89 96 86 83 80 64 53 53 60 66 80 78 72 69 66 72 74 75 65 67 56 46 42 45 49 79 98 64